Location: Omaha
(41.2590°N, 95.9380°W)
Time: 09:06:35
(UTC-06:00)

Envisat - Pass Details

Date: 07 October 2017
Orbit: 764 x 766 km, 98.2° (Epoch: 16 December)

Event Time Altitude Azimuth Distance (km) Brightness Sun altitude
Exits shadow 20:18:29 27° 86° (E) 1,448 3.8 -16.5°
Maximum altitude 20:19:25 29° 67° (ENE) 1,393 3.9 -16.6°
Drops below altitude 10° 20:23:43 10° 9° (N) 2,313 5.5 -17.5°
Sets 20:26:17 0° 358° (N) 3,244 6.4 -17.9°
